Orbital Elements at Epoch 2459000.5 (2020-May-31.0) TDB
Reference: JPL 80 (heliocentric ecliptic J2000)
Element | Value | Uncertainty (1-sigma) | Units |
e | .6232209102202457 | 4.5788e-08 | |
a | 3.184475248271827 | 2.6754e-08 | au |
q | 1.199843685470016 | 1.4435e-07 | au |
i | 21.77536190355771 | 1.4904e-05 | deg |
node | 237.2183194969864 | 1.9093e-05 | deg |
peri | 57.89307102762071 | 2.4432e-05 | deg |
M | 198.4891191908336 | 4.7399e-06 | deg |
tp | 2459931.724788679681 (2022-Dec-18.22478868) | 3.6479e-05 | TDB |
period | 2075.655350556783 5.68 | 2.6158e-05 7.162e-08 | d yr |
n | .1734391983252094 | 2.1857e-09 | deg/d |
Q | 5.169106811073638 | 4.3428e-08 | au |
|
| | Orbit Determination Parameters
Additional Information
|